Weather reports worldwide

Advertisment
Gottfrieding, Germany (10872): temperature & dewpoint: 16.01.2019 04:00:00 - 22.01.2019 04:00:00 (CET)Gottfrieding, Germany (10872): temperature 5cm & temperature -5cm: 16.01.2019 04:00:00 - 22.01.2019 04:00:00 (CET)Gottfrieding, Germany (10872): temperature -20cm & temperature -100cm: 16.01.2019 04:00:00 - 22.01.2019 04:00:00 (CET)Gottfrieding, Germany (10872): wind speed & gusts: 16.01.2019 04:00:00 - 22.01.2019 04:00:00 (CET)Gottfrieding, Germany (10872): wind direction: 16.01.2019 04:00:00 - 22.01.2019 04:00:00 (CET)Gottfrieding, Germany (10872): reduced air pressure: 16.01.2019 04:00:00 - 22.01.2019 04:00:00 (CET)Gottfrieding, Germany (10872): visibility: 16.01.2019 04:00:00 - 22.01.2019 04:00:00 (CET)Gottfrieding, Germany (10872): sunshine duration: 16.01.2019 04:00:00 - 22.01.2019 04:00:00 (CET)Gottfrieding, Germany (10872): precipitation: 16.01.2019 04:00:00 - 22.01.2019 04:00:00 (CET)
Date & Time tt [°C] td [°C] tt 5cm [°C] tt -5cm [°C] tt -20cm [°C] tt -100cm [°C] ff [km/h] ff [kn] fx [km/h] fx [kn] dd ppp [hPa] vv [km] sd [min] rr [mm]
22.01.2019 04:00:00 -3,8 -5,1 -3,9 -1,4 0,6 4,7 3 1 6 3 SSW 1018,6 3,6 0 0,0
22.01.2019 03:00:00 -4,0 -5,2 -4,1 -1,5 0,6 4,7 0 0 5 3 N 1019,4 3,3 0 0,0
22.01.2019 02:00:00 -4,2 -5,4 -4,3 -1,6 0,7 4,7 3 1 8 4 W 1020,0 3,3 0 0,0
22.01.2019 01:00:00 -4,9 -6,2 -4,8 -1,8 0,7 4,7 4 2 6 3 S 1020,7 3,8 0 0,0
22.01.2019 00:00:00 -5,9 -6,8 -6,0 -2,0 0,7 4,7 3 1 6 3 SW 1021,2 3,1 0 0,0
21.01.2019 23:00:00 -7,3 -8,3 -9,0 -1,9 0,7 4,7 2 1 6 4 W 1021,8 3,2 0 0,0
21.01.2019 22:00:00 -6,6 -7,7 -9,3 -1,5 0,7 4,7 2 1 6 4 SSW 1021,6 3,3 0 0,0
21.01.2019 21:00:00 -6,3 -7,4 -8,6 -1,2 0,7 4,8 3 2 6 3 WNW 1021,8 3,6 0 0,0
21.01.2019 20:00:00 -5,2 -6,0 -8,3 -0,8 0,7 4,8 1 1 3 2 W 1021,5 2,6 0 0,0
21.01.2019 19:00:00 -4,3 -5,5 -7,1 -0,5 0,7 4,8 1 0 4 2 S 1021,3 3,9 0 0,0
21.01.2019 18:00:00 -3,0 -5,0 -6,6 -0,4 0,7 4,8 4 2 5 3 S 1021,2 6 0 0,0
21.01.2019 17:00:00 -1,9 -4,8 -4,8 -0,5 0,7 4,8 4 2 8 4 NE 1021,1 7 30 0,0
21.01.2019 16:00:00 -1,0 -4,7 -1,1 -0,5 0,7 4,8 5 3 11 6 NE 1021,0 8 60 0,0
21.01.2019 15:00:00 -1,0 -5,1 0,1 -0,6 0,7 4,8 6 3 12 6 NE 1021,1 8 60 0,0
21.01.2019 14:00:00 -1,5 -5,3 -0,3 -0,8 0,7 4,8 7 4 14 8 ENE 1021,7 8 60 0,0
21.01.2019 13:00:00 -2,2 -5,2 -1,3 -1,0 0,7 4,8 8 4 14 8 ENE 1022,3 7 60 0,0
21.01.2019 12:00:00 -4,1 -6,7 -3,4 -1,2 0,7 4,8 6 4 11 6 NE 1023,3 6 60 0,0
21.01.2019 11:00:00 -5,7 -7,7 -4,4 -1,7 0,8 4,8 5 3 10 5 ENE 1024,1 4,6 60 0,0
21.01.2019 10:00:00 -6,9 -8,5 -6,2 -2,3 0,8 4,8 4 2 9 5 NE 1024,1 3,6 58 0,0
21.01.2019 09:00:00 -8,4 -9,8 -8,6 -2,7 0,8 4,8 0 0 4 2 N 1024,4 3,4 3 0,0
21.01.2019 08:00:00 -8,9 -10,2 -11,1 -2,8 0,8 4,8 3 1 5 3 N 1024,1 3,1 0 0,0
21.01.2019 07:00:00 -8,9 -10,1 -11,3 -2,6 0,8 4,8 0 0 6 3 N 1023,6 2,7 0 0,0
21.01.2019 06:00:00 -9,0 -10,2 -11,3 -2,5 0,8 4,8 3 2 5 3 E 1023,5 2,9 0 0,0
21.01.2019 05:00:00 -8,4 -9,5 -10,5 -2,3 0,9 4,8 3 1 6 4 E 1023,4 2,2 0 0,0
21.01.2019 04:00:00 -8,1 -9,2 -10,3 -2,0 0,9 4,8 3 2 9 5 NE 1023,3 2,1 0 0,0
21.01.2019 03:00:00 -7,1 -7,6 -7,9 -1,8 0,9 4,8 5 3 9 5 E 1023,1 0,5 0 0,0
21.01.2019 02:00:00 -6,8 -7,5 -7,1 -1,7 0,9 4,8 4 2 8 4 ENE 1023,2 0,9 0 0,0
21.01.2019 01:00:00 -6,3 -7,3 -6,3 -1,6 0,9 4,8 3 2 12 7 NE 1023,0 2,1 0 0,0
21.01.2019 00:00:00 -5,7 -6,5 -5,8 -1,6 1,0 4,8 6 3 11 6 E 1022,8 2,2 0 0,0
20.01.2019 23:00:00 -6,6 -7,6 -8,1 -1,4 1,0 4,9 6 3 13 7 E 1022,5 2,5 0 0,0
20.01.2019 22:00:00 -5,5 -7,0 -8,3 -1,0 1,0 4,9 3 1 12 7 E 1021,9 3,6 0 0,0
20.01.2019 21:00:00 -4,2 -6,2 -4,1 -0,8 1,0 4,9 8 4 15 8 E 1021,0 4,5 0 0,0
20.01.2019 20:00:00 -4,1 -6,0 -4,1 -0,8 1,0 4,9 4 2 11 6 E 1020,6 4,4 0 0,0
20.01.2019 19:00:00 -4,4 -6,3 -4,5 -0,7 1,0 4,9 3 2 6 4 E 1020,1 4,4 0 0,0
20.01.2019 18:00:00 -4,5 -6,4 -4,8 -0,5 1,0 4,9 3 2 8 5 E 1019,7 4,4 0 0,0
20.01.2019 17:00:00 -4,2 -6,3 -3,9 -0,5 1,0 4,9 4 2 9 5 SSE 1019,1 4,6 0 0,0
20.01.2019 16:00:00 -3,9 -6,0 -3,3 -0,5 1,0 4,9 3 2 10 5 SE 1018,7 4,7 0 0,0
20.01.2019 15:00:00 -3,8 -5,9 -3,4 -0,5 1,0 4,9 4 2 8 4 E 1018,2 4,6 0 0,0
20.01.2019 14:00:00 -4,0 -6,2 -3,5 -0,6 1,0 4,9 2 1 7 4 N 1018,3 4,7 0 0,0
20.01.2019 13:00:00 -4,2 -6,3 -3,3 -0,8 1,0 4,9 5 3 11 6 ESE 1018,4 4,8 0 0,0
20.01.2019 12:00:00 -5,0 -7,0 -3,9 -0,9 1,1 4,9 5 3 11 6 SE 1018,6 4,1 0 0,0
20.01.2019 11:00:00 -5,5 -6,7 -4,9 -1,1 1,1 4,9 3 1 11 6 ENE 1018,7 2,5 0 0,0
20.01.2019 10:00:00 -6,0 -7,0 -5,0 -1,3 1,1 4,9 4 2 10 6 SSE 1018,3 2,3 0 0,0
20.01.2019 09:00:00 -6,2 -7,2 -5,5 -1,5 1,1 4,9 3 2 10 6 ESE 1017,8 2,8 0 0,0
20.01.2019 08:00:00 -6,2 -7,0 -6,0 -1,7 1,2 4,9 3 2 9 5 E 1017,2 3,0 0 0,0
20.01.2019 07:00:00 -7,3 -8,6 -7,6 -2,0 1,2 4,9 4 2 10 5 ENE 1017,1 12 0 0,0
20.01.2019 06:00:00 -8,5 -9,6 -10,2 -2,0 1,2 4,9 4 2 5 3 E 1017,1 7 0 0,0
20.01.2019 05:00:00 -8,7 -9,7 -10,9 -1,9 1,2 4,9 5 3 6 3 E 1017,1 8 0 0,0
20.01.2019 04:00:00 -7,9 -9,2 -11,0 -1,7 1,3 4,9 4 2 7 4 E 1017,1 8 0 0,0
20.01.2019 03:00:00 -7,5 -9,0 -10,9 -1,6 1,3 4,9 6 3 9 5 E 1017,1 10 0 0,0
20.01.2019 02:00:00 -7,3 -9,1 -11,1 -1,4 1,3 4,9 6 4 9 5 ENE 1017,0 13 0 0,0
20.01.2019 01:00:00 -6,6 -8,3 -9,3 -1,2 1,3 4,9 7 4 9 5 E 1017,0 12 0 0,0
20.01.2019 00:00:00 -6,3 -8,5 -8,9 -1,0 1,4 4,9 7 4 13 7 ENE 1017,2 15 0 0,0
19.01.2019 23:00:00 -5,7 -7,9 -8,1 -0,8 1,4 4,9 10 5 13 7 NE 1017,2 17 0 0,0
19.01.2019 22:00:00 -5,0 -7,3 -7,2 -0,5 1,4 4,9 11 6 13 7 ENE 1017,1 15 0 0,0
19.01.2019 21:00:00 -5,1 -7,5 -6,9 -0,3 1,4 4,9 11 6 13 7 NE 1017,1 17 0 0,0
19.01.2019 20:00:00 -3,6 -6,7 -7,3 -0,1 1,4 4,9 6 3 12 7 E 1016,9 19 0 0,0
19.01.2019 19:00:00 -2,2 -6,5 -5,5 -0,1 1,4 4,9 8 5 13 7 ESE 1016,8 24 0 0,0
19.01.2019 18:00:00 -1,5 -6,6 -4,0 -0,1 1,4 4,9 10 6 20 11 ESE 1016,7 36 0 0,0
19.01.2019 17:00:00 -0,9 -7,2 -3,3 -0,1 1,5 4,9 8 5 21 11 ESE 1016,8 32 26 0,0
19.01.2019 16:00:00 -0,1 -7,5 -0,9 -0,1 1,5 4,9 13 7 30 16 ESE 1016,9 53 60 0,0
19.01.2019 15:00:00 0,4 -8,8 0,7 -0,2 1,5 4,9 19 10 26 14 SE 1017,1 33 60 0,0
19.01.2019 14:00:00 0,8 -6,8 1,8 -0,2 1,5 4,9 16 9 26 14 E 1017,4 36 60 0,0
19.01.2019 13:00:00 0,3 -7,1 0,2 -0,3 1,5 4,9 18 10 27 15 E 1018,1 21 60 0,0
19.01.2019 12:00:00 -0,6 -5,7 -1,1 -0,4 1,6 4,9 11 6 15 8 ENE 1019,1 28 60 0,0
19.01.2019 11:00:00 -2,2 -6,6 -2,5 -0,6 1,6 4,9 6 3 10 5 ENE 1019,8 20 60 0,0
19.01.2019 10:00:00 -3,9 -7,5 -4,6 -0,9 1,6 4,9 2 1 5 3 NE 1020,2 17 60 0,0
19.01.2019 09:00:00 -6,3 -8,1 -8,5 -1,1 1,7 4,9 3 2 5 3 SE 1020,6 15 18 0,0
19.01.2019 08:00:00 -7,2 -8,4 -11,0 -0,9 1,7 4,9 2 1 5 3 E 1020,7 12 0 0,0
19.01.2019 07:00:00 -6,6 -8,1 -10,6 -0,7 1,8 4,9 2 1 9 5 ESE 1020,6 17 0 0,0
19.01.2019 06:00:00 -6,0 -7,4 -9,7 -0,5 1,8 4,9 3 2 13 7 SSE 1020,6 21 0 0,0
19.01.2019 05:00:00 -6,0 -7,7 -7,6 -0,3 1,9 4,9 7 4 13 7 NE 1020,6 24 0 0,0
19.01.2019 04:00:00 -5,7 -7,3 -7,4 -0,1 1,9 4,9 6 3 14 7 ENE 1021,0 16 0 0,0
19.01.2019 03:00:00 -4,6 -5,7 -5,8 0,0 2,0 4,9 8 5 17 9 ENE 1021,2 8 0 0,0
19.01.2019 02:00:00 -4,1 -5,1 -5,3 0,1 2,0 4,9 8 5 16 9 ENE 1021,5 6 0 0,0
19.01.2019 01:00:00 -4,5 -5,2 -6,8 0,2 2,1 4,9 5 3 10 5 ENE 1022,0 7 0 0,0
19.01.2019 00:00:00 -4,7 -5,3 -6,4 0,4 2,1 4,9 5 3 9 5 NE 1022,5 4,9 0 0,0
18.01.2019 23:00:00 -4,4 -5,0 -8,0 0,5 2,2 4,9 3 2 7 4 ESE 1022,6 6 0 0,0
18.01.2019 22:00:00 -4,0 -4,7 -6,0 0,7 2,2 4,9 2 1 5 3 N 1022,6 6 0 0,0
18.01.2019 21:00:00 -3,2 -3,8 -6,0 0,8 2,2 4,9 3 1 5 3 SSE 1022,5 10 0 0,0
18.01.2019 20:00:00 -2,7 -3,3 -5,8 1,0 2,3 4,9 1 0 3 2 WNW 1022,6 9 0 0,0
18.01.2019 19:00:00 -2,4 -3,3 -4,9 1,1 2,3 4,9 0 0 6 4 N 1022,5 11 0 0,0
18.01.2019 18:00:00 -1,0 -2,9 -4,5 1,2 2,3 4,9 3 1 6 3 NW 1022,1 22 0 0,0
18.01.2019 17:00:00 -0,2 -2,9 -2,6 1,4 2,3 4,9 3 2 10 6 WSW 1021,8 26 0 0,0
18.01.2019 16:00:00 0,7 -3,0 -1,3 2,0 2,2 4,9 5 3 11 6 WSW 1021,4 35 0 0,0
18.01.2019 15:00:00 1,1 -2,7 1,4 2,4 2,2 4,9 8 4 17 9 WSW 1021,2 34 8 0,0
18.01.2019 14:00:00 1,5 -2,8 1,9 2,2 2,2 4,9 9 5 20 11 W 1020,9 29 25 0,0
18.01.2019 13:00:00 0,4 -2,6 0,3 1,7 2,1 4,9 9 5 22 12 W 1021,3 28 4 0,1
18.01.2019 12:00:00 1,5 -2,7 2,1 1,4 2,2 4,9 9 5 28 15 W 1021,0 31 4 0,0
18.01.2019 11:00:00 1,1 -2,4 1,2 1,0 2,2 4,9 13 7 28 15 W 1021,0 26 4 0,0
18.01.2019 10:00:00 0,6 -2,5 0,1 1,0 2,2 4,9 12 6 29 15 W 1020,4 25 12 0,0
18.01.2019 09:00:00 0,4 -2,2 -0,1 1,0 2,2 4,9 13 7 29 16 WSW 1019,3 23 0 0,0
18.01.2019 08:00:00 0,5 -2,5 -0,2 1,0 2,3 4,9 13 7 24 13 WSW 1018,1 27 0 0,0
18.01.2019 07:00:00 0,5 -2,0 -0,1 1,0 2,3 4,9 12 7 34 18 W 1017,1 25 0 0,0
18.01.2019 06:00:00 0,7 -2,3 0,1 1,1 2,3 4,9 14 8 27 15 W 1015,7 41 0 0,0
18.01.2019 05:00:00 1,1 -2,1 0,2 1,2 2,3 4,9 14 7 27 15 W 1014,9 44 0 0,0
18.01.2019 04:00:00 1,6 -1,6 1,0 1,4 2,3 4,9 13 7 31 17 W 1014,3 41 0 0,0
18.01.2019 03:00:00 2,0 -1,4 1,1 1,5 2,3 4,9 12 7 27 15 WSW 1013,7 56 0 0,0
18.01.2019 02:00:00 2,6 -1,3 1,8 1,6 2,3 4,9 12 6 29 16 WSW 1013,2 59 0 0,0
18.01.2019 01:00:00 2,9 -0,8 2,0 1,7 2,3 4,9 16 8 37 20 WSW 1012,8 45 0 0,0
18.01.2019 00:00:00 2,9 -0,9 1,8 1,7 2,3 4,9 15 8 34 19 WSW 1012,3 62 0 0,0
17.01.2019 23:00:00 3,5 -0,7 2,5 1,9 2,3 4,9 20 11 41 22 W 1011,7 66 0 0,0
17.01.2019 22:00:00 4,5 0,1 3,3 1,9 2,2 4,9 15 8 37 20 WSW 1010,2 62 0 0,0
17.01.2019 21:00:00 4,9 0,3 3,5 2,0 2,2 4,9 20 11 37 20 WSW 1009,8 70 0 0,0
17.01.2019 20:00:00 5,3 0,9 3,7 2,1 2,1 4,9 16 9 34 19 WSW 1009,3 68 0 0,0
17.01.2019 19:00:00 5,5 1,2 3,7 2,1 2,1 4,9 16 9 38 20 WSW 1008,9 61 0 0,2
17.01.2019 18:00:00 5,2 2,0 3,8 2,0 2,0 4,9 14 7 31 17 WSW 1008,6 48 0 0,0
17.01.2019 17:00:00 4,9 1,9 3,3 1,9 2,0 4,9 22 12 51 28 W 1008,6 31 0 0,5
17.01.2019 16:00:00 6,6 2,2 5,0 1,3 2,0 4,9 18 10 34 19 WSW 1007,3 31 0 0,1
17.01.2019 15:00:00 7,4 2,2 5,0 0,4 2,0 4,9 16 9 32 17 WSW 1006,4 33 0 0,0
17.01.2019 14:00:00 4,4 1,8 3,0 0,3 2,0 4,9 3 2 7 4 W 1006,8 19 0 0,0
17.01.2019 13:00:00 1,8 0,6 1,6 0,3 2,0 4,9 4 2 12 6 ENE 1007,8 9 0 0,0
17.01.2019 12:00:00 1,6 0,5 1,5 0,3 2,1 4,9 6 3 14 8 NE 1008,5 8 0 0,0
17.01.2019 11:00:00 0,9 -0,4 0,9 0,3 2,1 4,9 5 3 11 6 ENE 1009,4 8 7 0,0
17.01.2019 10:00:00 0,0 -1,2 -0,3 0,2 2,1 4,9 5 3 8 5 ENE 1009,6 7 13 0,0
17.01.2019 09:00:00 -1,5 -2,9 -2,1 0,2 2,2 4,9 3 1 7 4 ENE 1010,1 6 24 0,0
17.01.2019 08:00:00 -2,6 -3,2 -3,6 0,2 2,3 4,9 4 2 11 6 NE 1010,4 7 0 0,0
17.01.2019 07:00:00 -3,3 -4,0 -4,8 0,3 2,3 4,9 0 0 9 5 N 1010,6 6 0 0,0
17.01.2019 06:00:00 -3,0 -3,5 -5,5 0,4 2,4 4,9 1 0 6 3 SSE 1010,8 5 0 0,0
17.01.2019 05:00:00 -3,6 -4,5 -5,0 0,5 2,4 4,9 1 1 7 4 WSW 1010,9 6 0 0,0
17.01.2019 04:00:00 -2,8 -3,4 -5,5 0,7 2,5 4,9 3 1 8 4 NE 1010,7 5 0 0,0
17.01.2019 03:00:00 -2,6 -3,2 -5,6 0,8 2,6 4,9 3 2 8 5 E 1010,8 5 0 0,0
17.01.2019 02:00:00 -2,4 -3,2 -4,8 0,9 2,6 4,9 4 2 9 5 ENE 1010,8 6 0 0,0
17.01.2019 01:00:00 -2,0 -2,6 -4,3 1,1 2,7 4,9 4 2 10 5 E 1011,3 4,9 0 0,0
17.01.2019 00:00:00 -1,7 -2,2 -3,3 1,2 2,7 4,9 3 2 6 4 ENE 1011,7 5 0 0,0
16.01.2019 23:00:00 -1,5 -2,3 -3,6 1,3 2,8 4,9 2 1 6 3 ENE 1012,1 7 0 0,0
16.01.2019 22:00:00 -1,4 -2,1 -3,1 1,5 2,9 4,9 3 1 5 3 SE 1012,5 8 0 0,0
16.01.2019 21:00:00 0,1 -1,5 -2,1 1,6 2,9 4,9 2 1 5 3 NNW 1012,4 16 0 0,0
16.01.2019 20:00:00 0,1 -1,6 -2,2 1,7 3,0 4,9 2 1 7 4 NE 1012,8 12 0 0,0
16.01.2019 19:00:00 0,5 -1,7 -1,8 2,0 3,0 4,9 2 1 8 4 NNE 1012,9 16 0 0,0
16.01.2019 18:00:00 1,6 -1,8 -1,5 2,6 3,0 4,9 2 1 7 4 ENE 1013,2 21 0 0,0
16.01.2019 17:00:00 3,5 -1,6 -0,2 3,7 2,9 4,9 6 3 16 9 SSW 1013,5 21 6 0,0
16.01.2019 16:00:00 4,7 -1,0 3,7 5,0 2,8 4,9 9 5 18 10 S 1013,4 32 54 0,0
16.01.2019 15:00:00 5,4 -0,7 6,7 5,4 2,6 4,9 8 5 18 10 S 1014,0 32 60 0,0
16.01.2019 14:00:00 4,9 -1,0 6,1 5,2 2,4 4,9 9 5 19 10 S 1014,8 32 60 0,0
16.01.2019 13:00:00 4,6 -1,1 5,9 4,7 2,3 4,9 10 5 20 11 SSW 1015,8 31 60 0,0
16.01.2019 12:00:00 4,1 -1,0 5,1 3,7 2,3 4,9 7 4 16 8 W 1016,9 32 60 0,0
16.01.2019 11:00:00 3,0 -1,3 3,5 2,4 2,3 4,9 8 4 20 11 SW 1017,9 22 58 0,0
16.01.2019 10:00:00 2,0 -1,9 1,8 1,6 2,3 4,9 11 6 22 12 SW 1018,7 23 8 0,0
16.01.2019 09:00:00 1,9 -1,5 1,3 1,3 2,3 4,9 8 4 18 10 SW 1018,5 20 0 0,0
16.01.2019 08:00:00 1,8 -1,7 0,6 1,4 2,3 4,9 9 5 21 11 SW 1018,5 21 0 0,0
16.01.2019 07:00:00 2,6 -1,5 1,7 1,6 2,3 4,9 10 5 29 16 SW 1018,5 24 0 0,0
16.01.2019 06:00:00 3,3 -1,2 2,4 1,6 2,3 4,9 15 8 32 17 WSW 1018,4 50 0 0,0
16.01.2019 05:00:00 3,2 -1,0 2,3 1,7 2,3 4,9 13 7 27 14 WSW 1018,6 35 0 0,0
16.01.2019 04:00:00 3,2 -0,8 2,2 1,7 2,3 4,9 13 7 30 16 WSW 1019,1 32 0 0,0

tt = temperature
td = dewpoint
tt 5cm = temperature 5cm
tt -5cm = temperature -5cm
tt -20cm = temperature -20cm
tt -100cm = temperature -100cm
ff = wind speed
fx = gusts
dd = wind direction
ppp = reduced air pressure
vv = visibility
sd = sunshine duration
rr = precipitation

Next stations